Time,TemperatureC,DewpointC,PressurehPa,WindDirection,WindDirectionDegrees,WindSpeedKMH,WindSpeedGustKMH,Humidity,HourlyPrecipMM,Conditions,Clouds,dailyrainMM,SolarRadiationWatts/m^2,UVIndex,SoftwareType,DateUTC
2026-09-07 00:04:59,7,6.1,1007.7,WNW,283,0,0,94,0.0,,,0.0,0,0,n/a,2026-09-06T12:04:59Z
2026-09-07 00:09:56,7,6.1,1007.7,WNW,283,0,0,94,0.0,,,0.0,0,0,n/a,2026-09-06T12:09:56Z
2026-09-07 00:14:56,6.9,6.1,1007.6,WNW,283,0,0,94,0.0,,,0.0,0,0,n/a,2026-09-06T12:14:56Z
2026-09-07 00:19:57,6.9,6.1,1007.6,WNW,283,0,0,94,0.0,,,0.0,0,0,n/a,2026-09-06T12:19:57Z
2026-09-07 00:24:54,6.9,6,1007.5,WNW,283,0,0,94,0.0,,,0.0,0,0,n/a,2026-09-06T12:24:54Z
2026-09-07 00:29:58,6.9,6,1007.5,WNW,283,0,0,94,0.0,,,0.0,0,0,n/a,2026-09-06T12:29:58Z
2026-09-07 00:34:55,6.9,6,1007.5,WNW,283,0,0,94,0.0,,,0.0,0,0,n/a,2026-09-06T12:34:55Z
2026-09-07 00:39:57,6.9,6,1007.6,WNW,283,0,0,94,0.0,,,0.0,0,0,n/a,2026-09-06T12:39:57Z
2026-09-07 00:44:55,6.8,5.9,1007.6,WNW,283,0,0,94,0.0,,,0.0,0,0,n/a,2026-09-06T12:44:55Z
2026-09-07 00:49:59,6.8,5.9,1007.6,WNW,283,0,0,94,0.0,,,0.0,0,0,n/a,2026-09-06T12:49:59Z
2026-09-07 00:54:58,6.8,5.9,1007.8,WNW,283,0,0,94,0.2,,,0.2,0,0,n/a,2026-09-06T12:54:58Z
2026-09-07 00:59:56,6.8,5.9,1007.9,WNW,283,0,0,94,0.2,,,0.2,0,0,n/a,2026-09-06T12:59:56Z
2026-09-07 01:04:59,6.8,5.9,1007.9,WNW,283,0,0,94,0.2,,,0.2,0,0,n/a,2026-09-06T13:04:59Z
2026-09-07 01:09:55,6.8,5.9,1008.0,WNW,283,0,0,94,0.2,,,0.2,0,0,n/a,2026-09-06T13:09:55Z
2026-09-07 01:14:54,6.8,5.9,1008.0,WNW,283,0,0,94,0.2,,,0.2,0,0,n/a,2026-09-06T13:14:54Z
2026-09-07 01:19:59,6.8,5.9,1008.1,WNW,283,0,0,94,0.2,,,0.2,0,0,n/a,2026-09-06T13:19:59Z
2026-09-07 01:24:53,6.8,5.9,1008.1,WNW,283,0,0,94,0.2,,,0.2,0,0,n/a,2026-09-06T13:24:53Z
2026-09-07 01:29:57,6.8,5.9,1008.1,WNW,283,0,0,94,0.2,,,0.2,0,0,n/a,2026-09-06T13:29:57Z
2026-09-07 01:34:57,6.8,5.9,1008.2,WNW,283,0,0,94,0.2,,,0.2,0,0,n/a,2026-09-06T13:34:57Z
2026-09-07 01:39:59,6.8,5.9,1008.2,WNW,283,0,0,94,0.2,,,0.2,0,0,n/a,2026-09-06T13:39:59Z
2026-09-07 01:44:58,6.8,5.9,1008.4,WNW,283,0,0,94,0.2,,,0.2,0,0,n/a,2026-09-06T13:44:58Z
2026-09-07 01:49:57,6.8,5.9,1008.3,WNW,283,0,0,94,0.2,,,0.2,0,0,n/a,2026-09-06T13:49:57Z
2026-09-07 01:54:56,6.8,5.9,1008.2,WNW,283,0,0,94,0.2,,,0.2,0,0,n/a,2026-09-06T13:54:56Z
2026-09-07 01:59:54,6.8,5.9,1008.2,WNW,283,0,0,94,0.0,,,0.2,0,0,n/a,2026-09-06T13:59:54Z
2026-09-07 02:04:59,6.8,5.9,1008.2,WNW,283,0,0,94,0.0,,,0.2,0,0,n/a,2026-09-06T14:04:59Z
2026-09-07 02:09:58,6.8,5.9,1008.1,WNW,283,0,0,94,0.0,,,0.2,0,0,n/a,2026-09-06T14:09:58Z
2026-09-07 02:14:58,6.8,5.9,1008.2,WNW,283,0,0,94,0.0,,,0.2,0,0,n/a,2026-09-06T14:14:58Z
2026-09-07 02:19:59,6.7,5.8,1008.2,WNW,283,0,0,94,0.0,,,0.2,0,0,n/a,2026-09-06T14:19:59Z
2026-09-07 02:24:59,6.7,5.8,1008.2,WNW,283,0,0,94,0.0,,,0.2,0,0,n/a,2026-09-06T14:24:59Z
2026-09-07 02:29:56,6.7,5.8,1008.1,WNW,283,0,0,94,0.0,,,0.2,0,0,n/a,2026-09-06T14:29:56Z
2026-09-07 02:34:59,6.7,5.8,1008.2,WNW,283,0,0,94,0.0,,,0.2,0,0,n/a,2026-09-06T14:34:59Z
2026-09-07 02:39:54,6.7,5.8,1008.3,WNW,283,0,0,94,0.0,,,0.2,0,0,n/a,2026-09-06T14:39:54Z
2026-09-07 02:44:54,6.7,5.8,1008.3,WNW,283,0,0,94,0.0,,,0.2,0,0,n/a,2026-09-06T14:44:54Z
2026-09-07 02:49:57,6.7,5.8,1008.2,WNW,283,0,0,94,0.0,,,0.2,0,0,n/a,2026-09-06T14:49:57Z
2026-09-07 02:54:54,6.6,5.7,1008.1,WNW,283,0,0,94,0.0,,,0.2,0,0,n/a,2026-09-06T14:54:54Z
2026-09-07 02:59:58,6.6,5.7,1008.1,WNW,283,0,0,94,0.0,,,0.2,0,0,n/a,2026-09-06T14:59:58Z
2026-09-07 03:04:58,6.6,5.7,1008.0,WNW,283,0,0,94,0.0,,,0.2,0,0,n/a,2026-09-06T15:04:58Z
2026-09-07 03:09:56,6.6,5.7,1008.0,WNW,283,0,0,94,0.0,,,0.2,0,0,n/a,2026-09-06T15:09:56Z
2026-09-07 03:14:59,6.6,5.7,1008.0,WNW,283,0,0,94,0.0,,,0.2,0,0,n/a,2026-09-06T15:14:59Z
2026-09-07 03:19:57,6.6,5.7,1008.0,WNW,283,0,0,94,0.0,,,0.2,0,0,n/a,2026-09-06T15:19:57Z
2026-09-07 03:24:56,6.6,5.7,1008.0,WNW,283,0,0,94,0.0,,,0.2,0,0,n/a,2026-09-06T15:24:56Z
2026-09-07 03:29:54,6.6,5.7,1008.0,WNW,283,0,0,94,0.0,,,0.2,0,0,n/a,2026-09-06T15:29:54Z
2026-09-07 03:34:58,6.6,5.7,1008.0,WNW,283,0,0,94,0.0,,,0.2,0,0,n/a,2026-09-06T15:34:58Z
2026-09-07 03:39:54,6.6,5.7,1008.0,WNW,283,0,0,94,0.0,,,0.2,0,0,n/a,2026-09-06T15:39:54Z
2026-09-07 03:44:54,6.6,5.7,1008.1,WNW,283,0,0,94,0.0,,,0.2,0,0,n/a,2026-09-06T15:44:54Z
2026-09-07 03:49:54,6.5,5.6,1008.2,WNW,283,0,0,94,0.0,,,0.2,0,0,n/a,2026-09-06T15:49:54Z
2026-09-07 03:54:58,6.5,5.7,1008.2,WNW,283,0,0,94,0.0,,,0.2,0,0,n/a,2026-09-06T15:54:58Z
2026-09-07 03:59:56,6.6,5.7,1008.1,WNW,283,0,0,94,0.0,,,0.2,0,0,n/a,2026-09-06T15:59:56Z
2026-09-07 04:04:54,6.6,5.7,1008.1,WNW,283,0,0,94,0.0,,,0.2,0,0,n/a,2026-09-06T16:04:54Z
2026-09-07 04:09:56,6.6,5.7,1008.2,WNW,283,0,0,94,0.0,,,0.2,0,0,n/a,2026-09-06T16:09:56Z
2026-09-07 04:14:58,6.5,5.6,1008.2,WNW,283,0,0,94,0.0,,,0.2,0,0,n/a,2026-09-06T16:14:58Z
2026-09-07 04:19:54,6.5,5.6,1008.3,WNW,283,0,0,94,0.0,,,0.2,0,0,n/a,2026-09-06T16:19:54Z
2026-09-07 04:24:58,6.5,5.6,1008.3,WNW,283,0,0,94,0.0,,,0.2,0,0,n/a,2026-09-06T16:24:58Z
2026-09-07 04:29:57,6.5,5.6,1008.3,WNW,283,0,0,94,0.0,,,0.2,0,0,n/a,2026-09-06T16:29:57Z
2026-09-07 04:34:55,6.5,5.6,1008.4,WNW,283,0,0,94,0.0,,,0.2,0,0,n/a,2026-09-06T16:34:55Z
2026-09-07 04:39:57,6.5,5.6,1008.4,WNW,283,0,0,94,0.0,,,0.2,0,0,n/a,2026-09-06T16:39:57Z
2026-09-07 04:44:55,6.5,5.6,1008.5,WNW,283,0,0,94,0.0,,,0.2,0,0,n/a,2026-09-06T16:44:55Z
2026-09-07 04:49:58,6.5,5.6,1008.5,WNW,283,0,0,94,0.0,,,0.2,0,0,n/a,2026-09-06T16:49:58Z
2026-09-07 04:54:57,6.5,5.6,1008.6,WNW,283,0,0,94,0.0,,,0.2,0,0,n/a,2026-09-06T16:54:57Z
2026-09-07 04:59:56,6.5,5.6,1008.6,WNW,283,0,0,94,0.0,,,0.2,0,0,n/a,2026-09-06T16:59:56Z
2026-09-07 05:04:54,6.5,5.6,1008.7,WNW,283,0,0,94,0.0,,,0.2,0,0,n/a,2026-09-06T17:04:54Z
2026-09-07 05:09:56,6.5,5.6,1008.7,WNW,283,0,0,94,0.0,,,0.2,0,0,n/a,2026-09-06T17:09:56Z
2026-09-07 05:14:54,6.4,5.6,1008.7,WNW,283,0,0,94,0.0,,,0.2,0,0,n/a,2026-09-06T17:14:54Z
2026-09-07 05:19:54,6.4,5.6,1008.7,WNW,283,0,0,94,0.0,,,0.2,0,0,n/a,2026-09-06T17:19:54Z
2026-09-07 05:24:54,6.4,5.5,1008.7,WNW,283,0,0,94,0.0,,,0.2,0,0,n/a,2026-09-06T17:24:54Z
2026-09-07 05:29:59,6.4,5.5,1008.8,WNW,283,0,0,94,0.0,,,0.2,0,0,n/a,2026-09-06T17:29:59Z
2026-09-07 05:34:58,6.4,5.5,1008.9,WNW,283,0,0,94,0.0,,,0.2,0,0,n/a,2026-09-06T17:34:58Z
2026-09-07 05:39:55,6.4,5.5,1008.9,WNW,283,0,0,94,0.0,,,0.2,0,0,n/a,2026-09-06T17:39:55Z
2026-09-07 05:44:59,6.3,5.4,1009.0,WNW,283,0,0,94,0.0,,,0.2,0,0,n/a,2026-09-06T17:44:59Z
2026-09-07 05:49:57,6.3,5.4,1009.0,WNW,283,0,0,94,0.0,,,0.2,0,0,n/a,2026-09-06T17:49:57Z
2026-09-07 05:54:55,6.3,5.4,1009.0,WNW,283,0,0,94,0.0,,,0.2,0,0,n/a,2026-09-06T17:54:55Z
2026-09-07 05:59:54,6.3,5.4,1009.0,WNW,283,0,0,94,0.0,,,0.2,0,0,n/a,2026-09-06T17:59:54Z
2026-09-07 06:04:59,6.3,5.4,1009.1,WNW,283,0,0,94,0.0,,,0.2,0,0,n/a,2026-09-06T18:04:59Z
2026-09-07 06:09:58,6.3,5.4,1009.0,WNW,283,0,0,94,0.0,,,0.2,0,0,n/a,2026-09-06T18:09:58Z
2026-09-07 06:14:58,6.2,5.3,1009.0,WNW,283,0,0,94,0.0,,,0.2,0,0,n/a,2026-09-06T18:14:58Z
2026-09-07 06:19:58,6.2,5.3,1009.0,WNW,283,0,0,94,0.0,,,0.2,0,0,n/a,2026-09-06T18:19:58Z
2026-09-07 06:24:57,6.2,5.3,1009.0,WNW,283,0,0,94,0.0,,,0.2,0,0,n/a,2026-09-06T18:24:57Z
2026-09-07 06:29:54,6.1,5.2,1009.0,WNW,283,0,0,94,0.0,,,0.2,0,0,n/a,2026-09-06T18:29:54Z
2026-09-07 06:32:28,6.1,5.2,1009.1,WNW,283,0,0,94,0.0,,,0.2,0,0,n/a,2026-09-06T18:32:28Z
2026-09-07 06:44:59,6.1,5.2,1009.2,WNW,283,0,1.9,94,0.0,,,0.2,0,0,n/a,2026-09-06T18:44:59Z
2026-09-07 06:49:55,6.1,5.2,1009.3,WNW,283,0,1.9,94,0.0,,,0.2,0,0,n/a,2026-09-06T18:49:55Z
2026-09-07 06:54:56,6.1,5.2,1009.2,WNW,283,0,1.9,94,0.0,,,0.2,0,0,n/a,2026-09-06T18:54:56Z
2026-09-07 06:59:55,6,5.1,1009.4,WNW,283,0.1,1.9,94,0.0,,,0.2,0,0,n/a,2026-09-06T18:59:55Z
2026-09-07 07:04:54,6,5.1,1009.5,WNW,283,0.1,1.9,94,0.0,,,0.2,0,0,n/a,2026-09-06T19:04:54Z
2026-09-07 07:09:57,6,5.1,1009.6,WNW,283,0.4,1.9,94,0.0,,,0.2,0,0,n/a,2026-09-06T19:09:57Z
2026-09-07 07:14:56,6,5.1,1009.8,WNW,283,0.2,1.9,94,0.0,,,0.2,5,0,n/a,2026-09-06T19:14:56Z
2026-09-07 07:19:59,6,5.1,1009.8,WNW,283,0,0,94,0.0,,,0.2,7,0,n/a,2026-09-06T19:19:59Z
2026-09-07 07:24:55,6,5.1,1009.8,WNW,283,0,1.6,94,0.0,,,0.2,9,0,n/a,2026-09-06T19:24:55Z
2026-09-07 07:29:59,6,5.2,1009.8,WNW,283,0,1.9,94,0.0,,,0.2,11,0,n/a,2026-09-06T19:29:59Z
2026-09-07 07:34:56,6.1,5.2,1009.9,WNW,283,0,0,94,0.0,,,0.2,14,0,n/a,2026-09-06T19:34:56Z
2026-09-07 07:39:59,6.1,5.2,1009.9,WNW,283,1,3.7,94,0.0,,,0.2,19,0,n/a,2026-09-06T19:39:59Z
2026-09-07 07:44:57,6.1,5.2,1009.9,WNW,283,0.5,3.7,94,0.0,,,0.2,26,0,n/a,2026-09-06T19:44:57Z
2026-09-07 07:49:54,6.2,5.3,1009.9,WNW,283,1.3,3.7,94,0.0,,,0.2,28,0,n/a,2026-09-06T19:49:54Z
2026-09-07 07:54:55,6.2,5.3,1010.0,WNW,283,1,3.7,94,0.0,,,0.2,32,0,n/a,2026-09-06T19:54:55Z
2026-09-07 07:59:58,6.2,5.3,1010.0,WNW,283,0.9,3.7,94,0.0,,,0.2,35,0,n/a,2026-09-06T19:59:58Z
2026-09-07 08:04:54,6.2,5.3,1010.1,WNW,283,0.6,1.9,94,0.0,,,0.2,39,0,n/a,2026-09-06T20:04:54Z
2026-09-07 08:09:57,6.3,5.4,1010.2,WNW,283,0.7,1.9,94,0.0,,,0.2,39,0,n/a,2026-09-06T20:09:57Z
2026-09-07 08:14:54,6.3,5.4,1010.3,WNW,283,0.5,1.9,94,0.0,,,0.2,39,0,n/a,2026-09-06T20:14:54Z
2026-09-07 08:19:57,6.3,5.4,1010.4,WNW,283,1.3,3.7,94,0.0,,,0.2,42,0,n/a,2026-09-06T20:19:57Z
2026-09-07 08:24:59,6.4,5.5,1010.4,WNW,283,1.5,3.7,94,0.0,,,0.2,47,0,n/a,2026-09-06T20:24:59Z
2026-09-07 08:29:56,6.4,5.5,1010.4,WNW,283,1.1,3.7,94,0.0,,,0.2,51,0,n/a,2026-09-06T20:29:56Z
2026-09-07 08:34:59,6.4,5.5,1010.5,WNW,283,1.4,3.7,94,0.0,,,0.2,56,0,n/a,2026-09-06T20:34:59Z
2026-09-07 08:39:58,6.4,5.6,1010.4,WNW,283,1.6,3.7,94,0.0,,,0.2,60,0,n/a,2026-09-06T20:39:58Z
2026-09-07 08:44:56,6.5,5.6,1010.5,WNW,283,1.4,3.7,94,0.0,,,0.2,65,0,n/a,2026-09-06T20:44:56Z
2026-09-07 08:49:59,6.5,5.6,1010.6,WNW,283,0.4,3.7,94,0.0,,,0.2,72,0,n/a,2026-09-06T20:49:59Z
2026-09-07 08:54:56,6.6,5.7,1010.6,WNW,283,1.1,3.7,94,0.0,,,0.2,83,0,n/a,2026-09-06T20:54:56Z
2026-09-07 08:59:58,6.7,5.8,1010.6,WNW,283,0.8,3.7,94,0.0,,,0.2,93,0,n/a,2026-09-06T20:59:58Z
2026-09-07 09:04:54,6.7,5.8,1010.6,WNW,283,1.1,3.7,94,0.0,,,0.2,98,0,n/a,2026-09-06T21:04:54Z
2026-09-07 09:09:59,6.8,5.9,1010.6,WNW,283,0.9,1.9,94,0.0,,,0.2,105,0.5,n/a,2026-09-06T21:09:59Z
2026-09-07 09:14:56,6.8,6,1010.7,WNW,283,0.3,1.9,94,0.0,,,0.2,107,0.5,n/a,2026-09-06T21:14:56Z
2026-09-07 09:19:59,6.9,6,1010.7,WNW,283,0.9,3.2,94,0.0,,,0.2,123,0.6,n/a,2026-09-06T21:19:59Z
2026-09-07 09:24:56,7,6.1,1010.8,WNW,283,0.6,3.7,94,0.0,,,0.2,123,0.6,n/a,2026-09-06T21:24:56Z
2026-09-07 09:29:54,7,6.1,1010.8,WNW,283,1.4,5.6,94,0.0,,,0.2,125,0.6,n/a,2026-09-06T21:29:54Z
2026-09-07 09:34:56,7.1,6.2,1010.8,WNW,283,1.1,5.6,94,0.0,,,0.2,127,0.6,n/a,2026-09-06T21:34:56Z
2026-09-07 09:39:57,7.1,6.3,1010.8,WNW,283,0.3,1.9,94,0.0,,,0.2,121,0.6,n/a,2026-09-06T21:39:57Z
2026-09-07 09:44:54,7.3,6.4,1010.8,WNW,283,0.6,1.9,94,0.0,,,0.2,128,0.7,n/a,2026-09-06T21:44:54Z
2026-09-07 09:49:56,7.3,6.4,1010.7,WNW,283,0.9,3.7,94,0.0,,,0.2,130,0.7,n/a,2026-09-06T21:49:56Z
2026-09-07 09:54:58,7.4,6.5,1010.7,WNW,283,0.6,3.7,94,0.0,,,0.2,155,0.9,n/a,2026-09-06T21:54:58Z
2026-09-07 09:59:55,7.4,6.5,1010.7,WNW,283,1,3.7,94,0.0,,,0.2,158,0.9,n/a,2026-09-06T21:59:55Z
2026-09-07 10:04:58,7.4,6.5,1010.7,WNW,283,0.6,1.9,94,0.0,,,0.2,162,0.9,n/a,2026-09-06T22:04:58Z
2026-09-07 10:09:56,7.4,6.5,1010.7,WNW,283,1.1,3.7,94,0.0,,,0.2,183,1,n/a,2026-09-06T22:09:56Z
2026-09-07 10:14:59,7.4,6.5,1010.8,WNW,283,1.2,4.8,94,0.0,,,0.2,209,1.1,n/a,2026-09-06T22:14:59Z